Regional Weather Roundup
Issued by NWS

Home | Current Version | Previous Version | Graphics & Text | Print | Product List | Glossary On
Versions: 1 2 3 4 5 6 7 8 9 10 11 12 13 14 15 16 17 18 19 20 21 22 23 24 25 26 27 28 29 30 31 32 33 34 35 36 37 38 39 40 41 42 43 44 45 46 47 48 49 50
334
ASUS43 KMPX 190801
RWRMN
WEATHER ROUNDUP FOR MINNESOTA
NATIONAL WEATHER SERVICE TWIN CITIES/CHANHASSEN MN
200 AM CST THU JAN 19 2017


NOTE: "FAIR" INDICATES FEW OR NO CLOUDS BELOW 12,000 FEET WITH NO
SIGNIFICANT WEATHER AND/OR OBSTRUCTIONS TO VISIBILITY. N/A MEANS
CURRENT SKY AND/OR WEATHER CONDITIONS ARE NOT AVAILABLE.

MNZ060>063-068>070-190900-
   Twin Cities Metro

CITY           SKY/WX    TMP DP  RH WIND       PRES   REMARKS
TWIN CITIES    CLOUDY    32  29  88 SE6       29.82S WCI  26
ST PAUL        CLOUDY    30  30 100 SE6       29.84S FOG     WCI  24
CRYSTAL        CLOUDY    30  27  88 S7        29.79F FOG     WCI  23
BLAINE         CLOUDY    34  34 100 S8        29.80S FOG     WCI  27
LAKEVILLE      CLEAR     34  34 100 S7        29.82S WCI  28
EDEN PRAIRIE   CLEAR     36  33  89 S8        29.80S
SOUTH ST PAUL  CLOUDY    29  29  99 CALM      29.83F FOG
LAKE ELMO      FAIR      32  32 100 S6        29.84S WCI  26
$$
MNZ001>005-007-008-013>017-022>024-027-028-190900-
   Northwest Minnesota

CITY           SKY/WX    TMP DP  RH WIND       PRES   REMARKS
BEMIDJI        CLOUDY    27  23  86 S6        29.65F WCI  20
HALLOCK        CLOUDY    25  21  86 S18       29.55S WCI  11
ROSEAU         CLOUDY    30  25  80 S15       29.59F WCI  19
WARROAD        CLOUDY    30  25  80 S6        29.60S WCI  24
THIEF RVR FALL CLOUDY    27  22  81 S8        29.64R WCI  19
CROOKSTON      CLOUDY    28  25  86 S14       29.64S WCI  17
FOSSTON        CLOUDY    25  19  80 S9        29.65R WCI  15
DETROIT LAKES  CLOUDY    27  25  93 S8        29.66F WCI  18
MOORHEAD       CLOUDY    27  25  93 S14       29.65F WCI  15
PARK RAPIDS    CLOUDY    24  19  81 S5        29.67S HAZE    WCI  18
MAHNOMEN       FAIR      25  20  82 S5        29.65R WCI  19
$$
MNZ006-009>011-018-025>026-190900-
   North Central Minnesota

CITY           SKY/WX    TMP DP  RH WIND       PRES   REMARKS
BAUDETTE       CLOUDY    29  21  72 S6        29.62F WCI  23
FLAG ISLAND    CLOUDY    19  16  86 S8        29.60R WCI   9
INTL FALLS     CLOUDY    25  20  81 SE5       29.66F WCI  19
WASKISH        CLOUDY    32  25  74 S3        29.65S
BIG FORK       CLOUDY    28  25  86 S6        29.68F WCI  22
LONGVILLE      CLOUDY    28  27  93 S7        29.70S FOG     WCI  21
GRAND RAPIDS   CLOUDY    28  27  96 SE7       29.72F WCI  21
CRANE LAKE     CLOUDY    16  16 100 CALM      29.72S
ORR            CLOUDY    28  23  80 S7        29.67S WCI  21
COOK           CLOUDY    25  23  93 CALM      29.71S
WALKER         FAIR      26  24  93 S3        29.68S
$$
MNZ012-019>021-037-190900-
   Northeast Minnesota

CITY           SKY/WX    TMP DP  RH WIND       PRES   REMARKS
DULUTH         FOG       32  32 100 SW10      29.75S VSB 1/4 WCI  24
ELY            CLOUDY    23  21  93 SE3       29.72S
HIBBING        CLOUDY    26  26 100 S5        29.72F FOG     WCI  20
EVELETH        CLOUDY    20  18  93 CALM      29.74S FOG
DULUTH HARBOR  CLOUDY    32  28  86 CALM      29.80S FOG
TWO HARBORS    CLOUDY    28  23  80 CALM      29.75S HAZE
SILVER BAY     CLOUDY    19  19 100 CALM      29.76S
G MARAIS ARPRT CLOUDY    21  18  86 CALM      29.76S
$$
MNZ029>031-032-039>041-046>048-054>057-064-190900-
   West Central Minnesota

CITY           SKY/WX    TMP DP  RH WIND       PRES   REMARKS
FERGUS FALLS   CLOUDY    28  28 100 SE13      29.71F FOG     WCI  18
WHEATON        FOG       32  30  93 SE10      29.69S VSB 1/2 WCI  24
MORRIS         HVY SNOW  28  28 100 SE9       29.69S VSB<1/4 WCI  20
ALEXANDRIA     FOG       29  29 100 S8        29.71S VSB 1/4 WCI  21
ELBOW LAKE     SNOW      29  29 100 E12       29.69S VSB 1/4 WCI  19
WADENA         FOG       21  21 100 SE6       29.69R VSB 1/4 WCI  14
GLENWOOD       CLOUDY    28  28 100 S3        29.72R FOG
APPLETON       FOG       27  25  93 SE3       29.71S VSB 1/2
ORTONVILLE     SNOW      23  21  93 CALM      29.69S VSB 1/4
MADISON          N/A     28  28 100 S8        29.70F FOG     WCI  20
WILLMAR        FOG       25  25 100 SE7       29.75S VSB 1   WCI  17
$$
MNZ033>034-036-042>043-049>051-058-059-190900-
   Central Minnesota

CITY           SKY/WX    TMP DP  RH WIND       PRES   REMARKS
ST CLOUD       FOG       30  30 100 SE7       29.76F VSB 1/4 WCI  23
SAUK CENTRE    FOG       28  28 100 SE6       29.74R VSB 1/4 WCI  22
PAYNESVILLE    FOG       29  30 100 SE6       29.75S VSB 1/2 WCI  23
AITKIN         FOG       34  30  86 S8        29.72S VSB 1/4 WCI  27
PINE RIVER     FOG       28  28 100 S7        29.75R VSB 1/4 WCI  21
BRAINERD       FOG       31  31 100 S9        29.73S VSB 1/4 WCI  23
STAPLES        SNOW      28  28 100 S8        29.71R VSB 1/4 WCI  20
LONG PRAIRIE   SNOW      30  28  93 SE8       29.72F VSB 1/4 WCI  23
LITTLE FALLS   FOG       32  30  93 S8        29.74  VSB 1/2 WCI  25
LITCHFIELD     CLOUDY    32  32 100 CALM      29.76S FOG
BUFFALO        CLOUDY    32  31  97 CALM      29.79F FOG
MAPLE LAKE     CLOUDY    32  32 100 S6        29.78S FOG     WCI  26
HUTCHINSON     CLOUDY    32  32 100 SE3       29.78S FOG
$$
MNZ037-044-045-052-053-190900-
   East Central Minnesota

CITY           SKY/WX    TMP DP  RH WIND       PRES   REMARKS
PRINCETON      FOG       30  28  93 SE5       29.78S VSB 1   WCI  25
MORA           FOG       30  28  93 S5        29.80S VSB 1/4 WCI  25
CAMBRIDGE      CLEAR     32  27  80 SE6       29.77F HAZE    WCI  26
RUSH CITY      CLOUDY    28  28 100 S8        29.80S FOG     WCI  20
MOOSE LAKE     FOG       32  32 100 S8        29.75S VSB 3/4 WCI  25
HINCKLEY       CLOUDY    30  30 100 S3        29.79S FOG
CLOQUET        FOG       32  30  93 S6        29.75F VSB 1/2 WCI  26
MCGREGOR       CLOUDY    32  32 100 S6        29.75R VSB 1/4 WCI  26
$$
MNZ071>073-080-081-089-090-097-098-190900-
   Southwest Minnesota

CITY           SKY/WX    TMP DP  RH WIND       PRES   REMARKS
MONTEVIDEO     CLOUDY    30  30 100 S8        29.73S WCI  23
GRANITE FALLS  CLOUDY    31  30  98 S10       29.74S WCI  22
CANBY          CLOUDY    41  36  83 SW18G29   29.68F
MARSHALL       CLEAR     37  34  89 SW16      29.72S
REDWOOD FALLS  CLOUDY    32  29  88 SE8       29.75F WCI  25
OLIVIA         CLEAR     34  32  93 S9        29.74S WCI  26
PIPESTONE      CLEAR     37  36  93 S17       29.73S
WINDOM           N/A     36  34  93 S5        29.78S
WORTHINGTON    CLEAR     37  33  85 S15       29.77F
JACKSON        CLEAR     34  32  93 S12       29.80S WCI  25
TRACY          CLEAR     39  36  86 SW20G26   29.73F
SLAYTON        CLEAR     36  34  92 S21       29.74F
$$
MNZ065>067-074>077-082>085-091>093-190900-
   South Central Minnesota

CITY           SKY/WX    TMP DP  RH WIND       PRES   REMARKS
MANKATO        CLEAR     35  33  92 S15       29.80F WCI  25
NEW ULM        CLEAR     34  30  86 S8        29.79S WCI  27
ST JAMES       CLEAR     34  34 100 S12       29.81S WCI  25
FAIRMONT       CLEAR     36  33  89 S13       29.82S
GLENCOE        CLEAR     36  35  98 S7        29.77F
FARIBAULT      CLEAR     34  30  86 S6        29.84S WCI  29
OWATONNA       CLEAR     34  30  86 S13       29.84S WCI  25
WASECA         CLEAR     34  32  93 S13       29.85S WCI  25
ALBERT LEA     CLEAR     36  34  93 S8        29.86R
$$
MNZ078>079-086>088-094>096-190900-
   Southeast Minnesota

CITY           SKY/WX    TMP DP  RH WIND       PRES   REMARKS
ROCHESTER      CLEAR     31  30  96 S15       29.88R WCI  20
RED WING       CLOUDY    30  28  93 SE6       29.86S WCI  24
STANTON        CLEAR     35  31  87 S8        29.83R WCI  28
DODGE CENTER   CLEAR     34  30  86 S13       29.85S WCI  25
WINONA         CLEAR     34  32  93 CALM      29.92R
AUSTIN         CLEAR     30  30 100 S8        29.88R FOG     WCI  23
PRESTON        PTCLDY    32  30  94 S13       29.89S FOG     WCI  22
$$
ABBREVIATIONS USED IN REMARKS
   TC - TEMPERATURES IN CELSIUS
  WCI - WIND CHILL INDEX
   HX - HEAT INDEX
  VSB - VISIBILITY
$$




USA.gov is the U.S. government's official web portal to all federal, state and local government web resources and services.